ENT7043 LGIR-HEMA

Flight info

Callsign ENT7043
Flight time 1h 59m
Altitude 33000
Route TANSA DCT NOZ DCT HGD DCT MAK
Aircraft B738/M-SDE2E3FGHIRWXY/LB1

Departure

Time 2026-04-22 11:53
Airport Heraklion International Nikos Kazantzakis Airport (LGIR)

Arrival

Time 2026-04-22 13:52
Airport Marsa Alam International Airport (HEMA)
Time Latitude Longitude Altitude Speed Heading
2026-04-22 11:34 35.33817 25.17395 124 ft 0 kts 313°
2026-04-22 11:48 35.33825 25.17384 124 ft 2 kts 313°
2026-04-22 11:48 35.33844 25.17360 124 ft 4 kts 318°
2026-04-22 11:48 35.33885 25.17349 124 ft 8 kts 359°
2026-04-22 11:49 35.33929 25.17303 124 ft 11 kts 279°
2026-04-22 11:49 35.33937 25.17189 124 ft 15 kts 275°
2026-04-22 11:49 35.33947 25.17043 124 ft 19 kts 275°
2026-04-22 11:49 35.33959 25.16867 124 ft 21 kts 274°
2026-04-22 11:50 35.33971 25.16733 124 ft 11 kts 289°
2026-04-22 11:50 35.34015 25.16665 124 ft 9 kts 315°
2026-04-22 11:50 35.34056 25.16647 124 ft 4 kts 39°
2026-04-22 11:50 35.34065 25.16682 124 ft 3 kts 87°
2026-04-22 11:51 35.34065 25.16691 124 ft 0 kts 92°
2026-04-22 11:52 35.34062 25.16765 124 ft 29 kts 93°
2026-04-22 11:52 35.34022 25.17310 124 ft 96 kts 94°
2026-04-22 11:52 35.33947 25.18378 124 ft 152 kts 94°
2026-04-22 11:52 35.33850 25.19781 386 ft 174 kts 94°
2026-04-22 11:53 35.33716 25.21257 1020 ft 174 kts 95°
2026-04-22 11:53 35.33594 25.22712 1516 ft 173 kts 88°
2026-04-22 11:53 35.33581 25.24259 1663 ft 194 kts 90°
2026-04-22 11:53 35.33496 25.26044 1774 ft 222 kts 92°
2026-04-22 11:54 35.33387 25.27990 2128 ft 240 kts 92°
2026-04-22 11:54 35.33266 25.30090 2584 ft 254 kts 92°
2026-04-22 11:54 35.33137 25.32288 3187 ft 261 kts 92°
2026-04-22 11:54 35.33004 25.34521 3829 ft 266 kts 91°
2026-04-22 11:55 35.32870 25.36770 4468 ft 270 kts 91°
2026-04-22 11:55 35.32732 25.39080 5103 ft 275 kts 91°
2026-04-22 11:55 35.32593 25.41421 5728 ft 279 kts 91°
2026-04-22 11:55 35.32452 25.43792 6351 ft 283 kts 91°
2026-04-22 11:56 35.32309 25.46199 6974 ft 288 kts 92°
2026-04-22 11:56 35.32165 25.48646 7598 ft 292 kts 92°
2026-04-22 11:56 35.32019 25.51132 8225 ft 297 kts 92°
2026-04-22 11:56 35.31870 25.53675 8863 ft 301 kts 92°
2026-04-22 11:57 35.31720 25.56232 9502 ft 305 kts 93°
2026-04-22 11:57 35.31568 25.58826 10144 ft 309 kts 94°
2026-04-22 11:57 35.31412 25.61502 10340 ft 330 kts 94°
2026-04-22 11:57 35.31244 25.64421 10513 ft 350 kts 94°
2026-04-22 11:58 35.31074 25.67420 11034 ft 357 kts 95°
2026-04-22 11:58 35.30902 25.70443 11614 ft 362 kts 95°
2026-04-22 11:58 35.30725 25.73532 12274 ft 365 kts 95°
2026-04-22 11:58 35.30548 25.76625 12890 ft 369 kts 95°
2026-04-22 11:59 35.30367 25.79793 13540 ft 372 kts 95°
2026-04-22 11:59 35.30190 25.82938 14151 ft 376 kts 95°
2026-04-22 11:59 35.30008 25.86153 14770 ft 380 kts 95°
2026-04-22 11:59 35.29827 25.89348 15367 ft 383 kts 95°
2026-04-22 12:00 35.29554 25.92593 15929 ft 386 kts 104°
2026-04-22 12:00 35.28516 25.95608 16471 ft 383 kts 128°
2026-04-22 12:00 35.26782 25.98050 17139 ft 380 kts 137°
2026-04-22 12:00 35.24984 26.00448 17549 ft 389 kts 133°
2026-04-22 12:01 35.23203 26.02882 18125 ft 388 kts 139°
2026-04-22 12:01 35.21130 26.05032 18649 ft 389 kts 145°
2026-04-22 12:01 35.19016 26.07034 19175 ft 392 kts 145°
2026-04-22 12:01 35.16862 26.09122 19658 ft 395 kts 144°
2026-04-22 12:02 35.14709 26.11227 20160 ft 398 kts 144°
2026-04-22 12:02 35.12554 26.13326 20625 ft 401 kts 144°
2026-04-22 12:02 35.10376 26.15442 21084 ft 403 kts 144°
2026-04-22 12:02 35.08178 26.17517 21521 ft 405 kts 147°
2026-04-22 12:03 35.05793 26.19393 21941 ft 405 kts 155°
2026-04-22 12:03 35.03302 26.20911 22385 ft 406 kts 158°
2026-04-22 12:03 35.00750 26.22421 22767 ft 410 kts 157°
2026-04-22 12:03 34.98198 26.23970 23139 ft 413 kts 157°
2026-04-22 12:04 34.95617 26.25534 23512 ft 416 kts 158°
2026-04-22 12:04 34.93014 26.27094 23867 ft 420 kts 158°
2026-04-22 12:04 34.90409 26.28648 24211 ft 423 kts 158°
2026-04-22 12:04 34.87770 26.30220 24544 ft 426 kts 158°
2026-04-22 12:05 34.85089 26.31814 24900 ft 429 kts 158°
2026-04-22 12:05 34.82422 26.33397 25253 ft 431 kts 158°
2026-04-22 12:05 34.79726 26.34995 25586 ft 433 kts 158°
2026-04-22 12:05 34.77006 26.36606 25920 ft 436 kts 158°
2026-04-22 12:06 34.74287 26.38215 26255 ft 438 kts 158°
2026-04-22 12:06 34.71569 26.39820 26576 ft 440 kts 158°
2026-04-22 12:06 34.68807 26.41451 26862 ft 442 kts 158°
2026-04-22 12:06 34.66061 26.43071 27193 ft 444 kts 158°
2026-04-22 12:07 34.63279 26.44710 27444 ft 447 kts 158°
2026-04-22 12:07 34.60491 26.46351 27741 ft 449 kts 158°
2026-04-22 12:07 34.57663 26.48016 28027 ft 450 kts 158°
2026-04-22 12:07 34.54855 26.49666 28316 ft 452 kts 158°
2026-04-22 12:08 34.52052 26.51313 28576 ft 454 kts 158°
2026-04-22 12:08 34.49202 26.52986 28832 ft 456 kts 158°
2026-04-22 12:08 34.46343 26.54662 29070 ft 458 kts 158°
2026-04-22 12:08 34.43478 26.56342 29456 ft 456 kts 158°
2026-04-22 12:09 34.40647 26.58003 29844 ft 454 kts 158°
2026-04-22 12:09 34.37814 26.59661 30176 ft 454 kts 158°
2026-04-22 12:09 34.34979 26.61318 30474 ft 454 kts 158°
2026-04-22 12:09 34.32187 26.62950 30839 ft 452 kts 158°
2026-04-22 12:10 34.29365 26.64598 31117 ft 452 kts 158°
2026-04-22 12:10 34.26525 26.66254 31402 ft 452 kts 159°
2026-04-22 12:10 34.23710 26.67893 31713 ft 450 kts 159°
2026-04-22 12:10 34.20903 26.69514 32010 ft 449 kts 159°
2026-04-22 12:11 34.18093 26.71129 32209 ft 450 kts 159°
2026-04-22 12:11 34.15270 26.72763 32477 ft 450 kts 159°
2026-04-22 12:11 34.12467 26.74400 32761 ft 449 kts 158°
2026-04-22 12:11 34.09691 26.76038 33015 ft 448 kts 158°
2026-04-22 12:12 34.04057 26.79351 33017 ft 452 kts 158°
2026-04-22 12:12 33.98744 26.83277 33020 ft 454 kts 143°
2026-04-22 12:13 33.94157 26.88546 33020 ft 457 kts 139°
2026-04-22 12:13 33.89565 26.93863 33020 ft 459 kts 140°
2026-04-22 12:14 33.84988 26.99151 33019 ft 459 kts 140°
2026-04-22 12:14 33.80430 27.04472 33020 ft 459 kts 141°
2026-04-22 12:15 33.75844 27.09781 33020 ft 458 kts 141°
2026-04-22 12:15 33.71250 27.15066 33020 ft 458 kts 142°
2026-04-22 12:16 33.66672 27.20347 33019 ft 458 kts 141°
2026-04-22 12:16 33.62111 27.25600 33019 ft 458 kts 142°
2026-04-22 12:17 33.57526 27.30875 33020 ft 458 kts 141°
2026-04-22 12:17 33.52946 27.36137 33020 ft 458 kts 141°
2026-04-22 12:18 33.48339 27.41423 33020 ft 457 kts 141°
2026-04-22 12:18 33.43778 27.46647 33020 ft 457 kts 142°
2026-04-22 12:19 33.39196 27.51889 33020 ft 457 kts 141°
2026-04-22 12:19 33.34611 27.57125 33020 ft 457 kts 142°
2026-04-22 12:20 33.30025 27.62355 33020 ft 457 kts 141°
2026-04-22 12:20 33.25427 27.67591 33020 ft 457 kts 142°
2026-04-22 12:21 33.20837 27.72809 33020 ft 457 kts 142°
2026-04-22 12:21 33.16251 27.78014 33020 ft 457 kts 142°
2026-04-22 12:22 33.11646 27.83235 33019 ft 457 kts 142°
2026-04-22 12:22 33.07032 27.88455 33020 ft 463 kts 144°
2026-04-22 12:23 33.02327 27.93765 33021 ft 470 kts 146°
2026-04-22 12:23 32.97571 27.99132 33018 ft 474 kts 148°
2026-04-22 12:24 32.92791 28.04517 33019 ft 476 kts 149°
2026-04-22 12:24 32.87996 28.09913 33020 ft 475 kts 149°
2026-04-22 12:25 32.83546 28.14913 33019 ft 473 kts 149°
2026-04-22 12:25 32.78775 28.20263 33020 ft 474 kts 149°
2026-04-22 12:26 32.73994 28.25612 33020 ft 475 kts 148°
2026-04-22 12:26 32.69197 28.30975 33020 ft 475 kts 149°
2026-04-22 12:27 32.64436 28.36292 33019 ft 474 kts 149°
2026-04-22 12:27 32.59633 28.41642 33020 ft 474 kts 149°
2026-04-22 12:28 32.54836 28.46979 33020 ft 475 kts 149°
2026-04-22 12:28 32.50037 28.52311 33020 ft 474 kts 149°
2026-04-22 12:29 32.45232 28.57640 33019 ft 474 kts 149°
2026-04-22 12:29 32.40437 28.62951 33017 ft 474 kts 149°
2026-04-22 12:30 32.33257 28.70890 33005 ft 473 kts 149°
2026-04-22 12:31 32.28458 28.76182 32998 ft 474 kts 149°
2026-04-22 12:31 32.23644 28.81485 32992 ft 474 kts 149°
2026-04-22 12:32 32.18807 28.86804 32992 ft 475 kts 149°
2026-04-22 12:32 32.11567 28.94749 32993 ft 478 kts 148°
2026-04-22 12:33 32.06721 29.00061 32994 ft 478 kts 148°
2026-04-22 12:33 32.01878 29.05363 32992 ft 478 kts 148°
2026-04-22 12:34 31.96991 29.10700 32993 ft 478 kts 148°
2026-04-22 12:34 31.92134 29.15998 32992 ft 478 kts 148°
2026-04-22 12:35 31.87261 29.21305 32993 ft 478 kts 148°
2026-04-22 12:35 31.82421 29.26569 32993 ft 478 kts 148°
2026-04-22 12:36 31.77540 29.31868 32992 ft 479 kts 148°
2026-04-22 12:36 31.72674 29.37145 32993 ft 478 kts 148°
2026-04-22 12:37 31.67790 29.42431 32993 ft 479 kts 148°
2026-04-22 12:37 31.62904 29.47713 32993 ft 478 kts 148°
2026-04-22 12:38 31.58048 29.52955 32993 ft 478 kts 148°
2026-04-22 12:38 31.53145 29.58236 32994 ft 479 kts 148°
2026-04-22 12:39 31.45829 29.66110 32993 ft 477 kts 148°
2026-04-22 12:40 31.40938 29.71361 32993 ft 477 kts 148°
2026-04-22 12:40 31.36090 29.76557 32993 ft 477 kts 148°
2026-04-22 12:41 31.31198 29.81795 32992 ft 477 kts 148°
2026-04-22 12:41 31.26308 29.87021 32993 ft 477 kts 148°
2026-04-22 12:42 31.21436 29.92222 32993 ft 476 kts 148°
2026-04-22 12:42 31.16549 29.97383 32993 ft 475 kts 150°
2026-04-22 12:43 31.11548 30.02397 32993 ft 474 kts 150°
2026-04-22 12:43 31.06562 30.07417 32993 ft 474 kts 150°
2026-04-22 12:44 31.01612 30.12402 32993 ft 474 kts 150°
2026-04-22 12:44 30.96649 30.17394 32993 ft 473 kts 149°
2026-04-22 12:45 30.91673 30.22398 32992 ft 471 kts 149°
2026-04-22 12:45 30.86739 30.27349 32993 ft 470 kts 148°
2026-04-22 12:46 30.81813 30.32288 33019 ft 469 kts 148°
2026-04-22 12:46 30.76850 30.37252 33020 ft 471 kts 148°
2026-04-22 12:47 30.71915 30.42185 33020 ft 471 kts 148°
2026-04-22 12:47 30.66988 30.47106 33020 ft 470 kts 148°
2026-04-22 12:48 30.62033 30.52043 33017 ft 470 kts 148°
2026-04-22 12:48 30.57095 30.56960 33011 ft 470 kts 148°
2026-04-22 12:49 30.52140 30.61886 33006 ft 470 kts 148°
2026-04-22 12:49 30.47202 30.66788 32999 ft 469 kts 149°
2026-04-22 12:50 30.42250 30.71697 32994 ft 469 kts 149°
2026-04-22 12:50 30.37330 30.76567 32993 ft 469 kts 149°
2026-04-22 12:51 30.32360 30.81481 32993 ft 469 kts 149°
2026-04-22 12:51 30.27439 30.86338 32993 ft 469 kts 149°
2026-04-22 12:52 30.22478 30.91229 32992 ft 470 kts 149°
2026-04-22 12:52 30.17495 30.96135 32993 ft 470 kts 149°
2026-04-22 12:53 30.12563 31.00985 32993 ft 469 kts 148°
2026-04-22 12:53 30.07600 31.05856 32993 ft 472 kts 148°
2026-04-22 12:54 30.02580 31.10777 32993 ft 473 kts 148°
2026-04-22 12:54 29.97570 31.15684 32992 ft 473 kts 148°
2026-04-22 12:55 29.93410 31.19752 32992 ft 473 kts 148°
2026-04-22 12:55 29.87577 31.25448 32993 ft 474 kts 148°
2026-04-22 12:56 29.82563 31.30338 32993 ft 473 kts 148°
2026-04-22 12:56 29.77536 31.35233 32993 ft 473 kts 148°
2026-04-22 12:57 29.72509 31.40121 32993 ft 474 kts 148°
2026-04-22 12:57 29.67495 31.44991 32992 ft 473 kts 148°
2026-04-22 12:58 29.62510 31.49825 32992 ft 473 kts 148°
2026-04-22 12:58 29.57462 31.54714 32992 ft 474 kts 148°
2026-04-22 12:59 29.52460 31.59551 32992 ft 474 kts 148°
2026-04-22 12:59 29.47403 31.64436 32993 ft 474 kts 148°
2026-04-22 13:00 29.42412 31.69253 32993 ft 472 kts 148°
2026-04-22 13:00 29.37368 31.74110 32992 ft 472 kts 148°
2026-04-22 13:01 29.32367 31.78919 32993 ft 473 kts 148°
2026-04-22 13:01 29.27333 31.83756 32993 ft 473 kts 148°
2026-04-22 13:02 29.22322 31.88565 32993 ft 473 kts 148°
2026-04-22 13:02 29.17287 31.93389 32993 ft 472 kts 148°
2026-04-22 13:03 29.12264 31.98194 32994 ft 473 kts 148°
2026-04-22 13:03 29.07245 32.02991 32992 ft 472 kts 148°
2026-04-22 13:04 29.02226 32.07782 32993 ft 470 kts 147°
2026-04-22 13:04 28.97250 32.12526 32993 ft 467 kts 146°
2026-04-22 13:05 28.92292 32.17246 32991 ft 465 kts 146°
2026-04-22 13:05 28.87286 32.22002 32969 ft 466 kts 146°
2026-04-22 13:06 28.82312 32.26724 32948 ft 466 kts 146°
2026-04-22 13:06 28.77352 32.31427 32921 ft 466 kts 146°
2026-04-22 13:07 28.72376 32.36139 32896 ft 466 kts 146°
2026-04-22 13:07 28.67423 32.40824 32885 ft 466 kts 146°
2026-04-22 13:08 28.62438 32.45532 32885 ft 466 kts 146°
2026-04-22 13:08 28.57462 32.50226 32885 ft 466 kts 146°
2026-04-22 13:09 28.52513 32.54890 32884 ft 466 kts 146°
2026-04-22 13:09 28.47516 32.59592 32885 ft 465 kts 146°
2026-04-22 13:10 28.42540 32.64268 32885 ft 466 kts 146°
2026-04-22 13:10 28.37441 32.69054 32885 ft 465 kts 147°
2026-04-22 13:11 28.32474 32.73710 32885 ft 465 kts 147°
2026-04-22 13:11 28.27513 32.78353 32885 ft 465 kts 147°
2026-04-22 13:12 28.22542 32.83001 32885 ft 465 kts 147°
2026-04-22 13:12 28.17548 32.87665 32885 ft 465 kts 147°
2026-04-22 13:13 28.12560 32.92316 32885 ft 466 kts 147°
2026-04-22 13:13 28.07588 32.96948 32885 ft 468 kts 147°
2026-04-22 13:14 28.02546 33.01638 32885 ft 469 kts 146°
2026-04-22 13:14 27.97523 33.06305 32885 ft 470 kts 146°
2026-04-22 13:15 27.92459 33.11005 32885 ft 472 kts 146°
2026-04-22 13:15 27.87391 33.15703 32884 ft 472 kts 146°
2026-04-22 13:16 27.82357 33.20363 32858 ft 472 kts 146°
2026-04-22 13:16 27.77297 33.25042 32857 ft 471 kts 146°
2026-04-22 13:17 27.72226 33.29724 32858 ft 471 kts 146°
2026-04-22 13:17 27.67169 33.34387 32858 ft 471 kts 146°
2026-04-22 13:18 27.62119 33.39040 32866 ft 471 kts 146°
2026-04-22 13:18 27.57066 33.43687 32875 ft 472 kts 146°
2026-04-22 13:19 27.51987 33.48355 32883 ft 472 kts 146°
2026-04-22 13:19 27.46929 33.52996 32885 ft 472 kts 146°
2026-04-22 13:20 27.41841 33.57659 32885 ft 472 kts 146°
2026-04-22 13:20 27.36757 33.62314 32885 ft 472 kts 146°
2026-04-22 13:21 27.31687 33.66951 32885 ft 471 kts 147°
2026-04-22 13:21 27.26640 33.71560 32885 ft 471 kts 147°
2026-04-22 13:22 27.21546 33.76198 32884 ft 471 kts 148°
2026-04-22 13:22 27.16173 33.80229 32884 ft 461 kts 160°
2026-04-22 13:23 27.10393 33.83129 32885 ft 457 kts 163°
2026-04-22 13:23 27.04609 33.86017 32885 ft 457 kts 163°
2026-04-22 13:24 26.98819 33.88887 32885 ft 456 kts 163°
2026-04-22 13:24 26.93059 33.91719 32885 ft 454 kts 162°
2026-04-22 13:25 26.87284 33.94548 32885 ft 452 kts 162°
2026-04-22 13:25 26.81536 33.97357 32885 ft 452 kts 162°
2026-04-22 13:26 26.75803 34.00152 32885 ft 452 kts 162°
2026-04-22 13:26 26.70029 34.02963 32885 ft 453 kts 162°
2026-04-22 13:27 26.64299 34.05749 32884 ft 453 kts 162°
2026-04-22 13:27 26.58548 34.08541 32885 ft 452 kts 162°
2026-04-22 13:28 26.52758 34.11349 32884 ft 452 kts 162°
2026-04-22 13:28 26.47021 34.14129 32881 ft 452 kts 162°
2026-04-22 13:29 26.41281 34.16906 32876 ft 453 kts 162°
2026-04-22 13:29 26.35531 34.19685 32869 ft 453 kts 162°
2026-04-22 13:30 26.29761 34.22471 32862 ft 452 kts 162°
2026-04-22 13:30 26.23992 34.25254 32858 ft 452 kts 162°
2026-04-22 13:31 26.18240 34.28025 32858 ft 452 kts 162°
2026-04-22 13:31 26.12492 34.30791 32818 ft 452 kts 162°
2026-04-22 13:31 26.09625 34.32171 32554 ft 446 kts 162°
2026-04-22 13:32 26.06858 34.33506 32305 ft 435 kts 162°
2026-04-22 13:32 26.04108 34.34831 32053 ft 425 kts 162°
2026-04-22 13:32 26.01434 34.36116 31804 ft 417 kts 162°
2026-04-22 13:32 25.98814 34.37371 31560 ft 414 kts 162°
2026-04-22 13:33 25.96146 34.38646 31312 ft 415 kts 162°
2026-04-22 13:33 25.93507 34.39909 31065 ft 416 kts 162°
2026-04-22 13:33 25.90852 34.41181 30815 ft 415 kts 162°
2026-04-22 13:33 25.88218 34.42444 30564 ft 413 kts 162°
2026-04-22 13:34 25.85603 34.43696 30296 ft 409 kts 162°
2026-04-22 13:34 25.82983 34.44924 29764 ft 405 kts 167°
2026-04-22 13:34 25.80310 34.45555 29283 ft 388 kts 184°
2026-04-22 13:34 25.77712 34.45235 28819 ft 370 kts 203°
2026-04-22 13:35 25.75481 34.44032 28235 ft 357 kts 221°
2026-04-22 13:35 25.73603 34.42291 27730 ft 351 kts 226°
2026-04-22 13:35 25.71765 34.40477 27136 ft 352 kts 225°
2026-04-22 13:35 25.69944 34.38726 26632 ft 350 kts 225°
2026-04-22 13:36 25.68121 34.36975 26154 ft 347 kts 225°
2026-04-22 13:36 25.66303 34.35247 25651 ft 346 kts 221°
2026-04-22 13:36 25.64204 34.33907 25103 ft 353 kts 204°
2026-04-22 13:36 25.61807 34.33409 24647 ft 360 kts 184°
2026-04-22 13:37 25.59316 34.33881 24152 ft 369 kts 164°
2026-04-22 13:37 25.57095 34.35297 23672 ft 377 kts 143°
2026-04-22 13:37 25.55393 34.37500 23194 ft 383 kts 123°
2026-04-22 13:37 25.54435 34.40249 22713 ft 386 kts 102°
2026-04-22 13:38 25.54356 34.43197 22237 ft 385 kts 81°
2026-04-22 13:38 25.56740 34.48331 21052 ft 380 kts 39°
2026-04-22 13:38 25.58911 34.49912 20429 ft 374 kts 18°
2026-04-22 13:39 25.61360 34.50689 19818 ft 370 kts
2026-04-22 13:39 25.63868 34.51247 19187 ft 371 kts
2026-04-22 13:39 25.66404 34.51840 18555 ft 372 kts
2026-04-22 13:39 25.68922 34.52432 17930 ft 373 kts
2026-04-22 13:40 25.71442 34.52989 17305 ft 372 kts
2026-04-22 13:40 25.73981 34.53024 16734 ft 363 kts 346°
2026-04-22 13:40 25.76333 34.52153 16207 ft 351 kts 326°
2026-04-22 13:40 25.78163 34.50486 15652 ft 336 kts 305°
2026-04-22 13:41 25.79246 34.48303 15037 ft 322 kts 283°
2026-04-22 13:41 25.79463 34.45905 14414 ft 311 kts 261°
2026-04-22 13:41 25.78818 34.43656 13793 ft 303 kts 243°
2026-04-22 13:41 25.77829 34.41625 13174 ft 299 kts 241°
2026-04-22 13:42 25.76866 34.39619 12548 ft 296 kts 242°
2026-04-22 13:42 25.75924 34.37621 11921 ft 292 kts 242°
2026-04-22 13:42 25.74985 34.35637 11294 ft 290 kts 242°
2026-04-22 13:42 25.74003 34.33694 10660 ft 287 kts 235°
2026-04-22 13:43 25.72600 34.32178 10090 ft 285 kts 212°
2026-04-22 13:43 25.70762 34.31473 9595 ft 284 kts 187°
2026-04-22 13:43 25.68796 34.31747 9088 ft 286 kts 161°
2026-04-22 13:43 25.67154 34.32946 8591 ft 288 kts 135°
2026-04-22 13:44 25.65920 34.34687 8106 ft 286 kts 128°
2026-04-22 13:44 25.64750 34.36433 7602 ft 284 kts 129°
2026-04-22 13:44 25.63555 34.38178 7099 ft 283 kts 129°
2026-04-22 13:44 25.62367 34.39902 6624 ft 285 kts 129°
2026-04-22 13:45 25.61159 34.41644 6110 ft 284 kts 129°
2026-04-22 13:45 25.59965 34.43352 5633 ft 277 kts 129°
2026-04-22 13:45 25.58806 34.45001 5110 ft 269 kts 129°
2026-04-22 13:45 25.57678 34.46590 4604 ft 262 kts 129°
2026-04-22 13:46 25.56566 34.48146 4100 ft 256 kts 129°
2026-04-22 13:46 25.55474 34.49658 3594 ft 248 kts 129°
2026-04-22 13:46 25.54384 34.51115 3093 ft 241 kts 130°
2026-04-22 13:46 25.53332 34.52497 2654 ft 230 kts 130°
2026-04-22 13:47 25.52329 34.53805 2324 ft 218 kts 129°
2026-04-22 13:47 25.51455 34.55106 2070 ft 205 kts 123°
2026-04-22 13:47 25.50653 34.56361 1836 ft 197 kts 126°
2026-04-22 13:47 25.49721 34.57466 1689 ft 198 kts 135°
2026-04-22 13:48 25.48715 34.58546 1539 ft 200 kts 138°
2026-04-22 13:48 25.47645 34.59498 1501 ft 197 kts 142°
2026-04-22 13:48 25.46664 34.60500 1481 ft 187 kts 121°
2026-04-22 13:48 25.46317 34.61823 1489 ft 180 kts 79°
2026-04-22 13:49 25.46667 34.63121 1524 ft 176 kts 63°
2026-04-22 13:49 25.47244 34.64252 1438 ft 159 kts 35°
2026-04-22 13:49 25.48184 34.64642 1386 ft 140 kts 349°
2026-04-22 13:49 25.48978 34.64116 1365 ft 137 kts 307°
2026-04-22 13:50 25.49320 34.63520 1426 ft 137 kts 304°
2026-04-22 13:50 25.50048 34.62340 1406 ft 139 kts 311°
2026-04-22 13:50 25.50725 34.61605 1281 ft 137 kts 321°
2026-04-22 13:50 25.51510 34.61004 1084 ft 136 kts 329°
2026-04-22 13:51 25.52338 34.60519 844 ft 134 kts 332°
2026-04-22 13:51 25.53149 34.60027 642 ft 133 kts 329°
2026-04-22 13:51 25.53944 34.59513 476 ft 133 kts 330°
2026-04-22 13:51 25.54753 34.59005 283 ft 134 kts 330°
2026-04-22 13:52 25.55468 34.58546 261 ft 98 kts 329°
2026-04-22 13:52 25.55891 34.58275 261 ft 40 kts 330°
2026-04-22 13:52 25.56033 34.58192 261 ft 11 kts 354°
2026-04-22 13:52 25.56094 34.58184 261 ft 6 kts 303°
2026-04-22 13:53 25.56064 34.58167 261 ft 8 kts 159°
2026-04-22 13:53 25.55989 34.58212 261 ft 15 kts 150°
2026-04-22 13:53 25.55875 34.58285 261 ft 22 kts 149°
2026-04-22 13:53 25.55719 34.58387 261 ft 29 kts 150°
2026-04-22 13:54 25.55553 34.58492 261 ft 19 kts 150°
2026-04-22 13:54 25.55480 34.58564 261 ft 12 kts 94°
2026-04-22 13:54 25.55519 34.58656 261 ft 14 kts 60°
2026-04-22 13:54 25.55571 34.58758 261 ft 16 kts 59°
2026-04-22 13:55 25.55620 34.58856 261 ft 10 kts 72°
2026-04-22 13:55 25.55589 34.58927 261 ft 12 kts 144°
2026-04-22 13:55 25.55506 34.58982 261 ft 15 kts 150°
2026-04-22 13:55 25.55476 34.59009 261 ft 5 kts 96°
2026-04-22 13:56 25.55490 34.59053 261 ft 6 kts 58°
2026-04-22 13:56 25.55504 34.59079 261 ft 2 kts 59°
2026-04-22 13:56 25.55509 34.59089 261 ft 0 kts 59°